Sitka, AK

5:56 PM AKDT on April 21, 2018 (GMT -0800)
Sitka Rocky Gutierrez

Weather History for PASI - March, 2013

Change the Weather History Date:

Sunday, March 24, 2013

  Actual Average Record
Temperature  
Mean Temperature 44 °F 39 °F  
Max Temperature 46 °F 44 °F 53 °F (1958)
Min Temperature 41 °F 34 °F 15 °F (1967)
Degree Days  
Heating Degree Days 22 26  
Month to date heating degree days 658  
Moisture  
Dew Point 32 °F    
Average Humidity 63    
Maximum Humidity 74    
Minimum Humidity 56    
Precipitation  
Precipitation 0.01 in 0.19 in 1.07 in (1969)
Month to date precipitation 4.97  
Year to date precipitation 19.84  
Sea Level Pressure  
Sea Level Pressure 29.94 in    
Wind  
Wind Speed 14 mph (ESE)    
Max Wind Speed 17 mph    
Max Gust Speed 24 mph    
Visibility 10 miles    
Events Rain    
T = Trace of Precipitation, MM = Missing Value Source: NWS Daily Summary

Daily Weather History Graph

Daily Weather History Graph

Search for Another Location

Airport or City:

Astronomy

Mar. 24, 2013 Rise Set
Actual Time 6:51 AM AKDT 7:24 PM AKDT
Civil Twilight 6:12 AM AKDT 8:03 PM AKDT
Nautical Twilight 5:26 AM AKDT 8:50 PM AKDT
Astronomical Twilight 4:36 AM AKDT 9:40 PM AKDT
Moon 4:39 PM AKDT (3/24) 5:32 AM AKDT (3/24)
Length of Visible Light 13h 50m
Length of Day
12h 33m
Waxing Gibbous, 92% of the Moon is Illuminated
Mar 24
Waxing Gibbous
Mar 27
Full
Apr 2
Last Quarter
Apr 10
New
Apr 18
First Quarter

Hourly Weather History & Observations

Time (AKDT) Temp. Windchill Dew Point Humidity Pressure Visibility Wind Dir Wind Speed Gust Speed Precip Events Conditions
12:53 AM 41.0 °F 33.1 °F 28.9 °F 62% 30.05 in 10.0 mi ESE 15.0 mph - N/A   Overcast
1:53 AM 41.0 °F 33.9 °F 30.0 °F 65% 30.05 in 10.0 mi ESE 12.7 mph - N/A   Overcast
2:53 AM 42.1 °F 34.9 °F 28.9 °F 60% 30.04 in 10.0 mi ESE 13.8 mph - N/A   Overcast
3:53 AM 41.0 °F 32.5 °F 28.9 °F 62% 30.03 in 10.0 mi ESE 17.3 mph - N/A   Overcast
4:53 AM 41.0 °F 33.5 °F 28.9 °F 62% 30.01 in 10.0 mi ESE 13.8 mph 21.9 mph 0.00 in   Overcast
5:53 AM 42.1 °F 34.2 °F 30.0 °F 62% 30.01 in 10.0 mi ESE 16.1 mph - 0.00 in   Overcast
6:53 AM 42.1 °F 34.5 °F 30.0 °F 62% 30.00 in 10.0 mi ESE 15.0 mph - N/A   Overcast
7:53 AM 42.1 °F 34.2 °F 30.0 °F 62% 30.00 in 10.0 mi ESE 16.1 mph - N/A   Overcast
8:53 AM 42.1 °F 35.2 °F 30.0 °F 62% 29.99 in 10.0 mi ESE 12.7 mph - N/A   Overcast
9:53 AM 43.0 °F 35.4 °F 30.9 °F 62% 29.99 in 10.0 mi SE 16.1 mph - N/A   Overcast
10:53 AM 44.1 °F 37.1 °F 30.9 °F 60% 29.98 in 10.0 mi ESE 15.0 mph - N/A   Overcast
11:53 AM 46.0 °F 41.9 °F 30.9 °F 56% 29.97 in 10.0 mi ESE 8.1 mph - N/A   Overcast
12:53 PM 46.9 °F - 32.0 °F 56% 29.96 in 10.0 mi ESE 12.7 mph - N/A   Overcast
1:53 PM 46.9 °F - 33.1 °F 59% 29.95 in 10.0 mi ESE 10.4 mph - N/A   Overcast
2:53 PM 46.0 °F 39.6 °F 33.1 °F 61% 29.93 in 10.0 mi East 15.0 mph - N/A   Overcast
3:53 PM 46.0 °F 39.9 °F 33.1 °F 61% 29.91 in 10.0 mi ESE 13.8 mph - N/A   Overcast
4:53 PM 46.0 °F 41.0 °F 33.1 °F 61% 29.89 in 10.0 mi SE 10.4 mph - N/A   Overcast
5:53 PM 45.0 °F 39.3 °F 33.1 °F 63% 29.87 in 10.0 mi ESE 11.5 mph - N/A   Overcast
6:53 PM 44.1 °F 38.6 °F 34.0 °F 68% 29.85 in 10.0 mi ESE 10.4 mph - N/A   Overcast
7:53 PM 45.0 °F 38.2 °F 33.1 °F 63% 29.83 in 10.0 mi ESE 15.0 mph - N/A   Overcast
8:53 PM 43.0 °F 36.4 °F 34.0 °F 71% 29.83 in 10.0 mi ESE 12.7 mph - 0.00 in Rain Light Rain
9:53 PM 43.0 °F 36.0 °F 35.1 °F 74% 29.81 in 10.0 mi ESE 13.8 mph - 0.00 in Rain Light Rain
10:53 PM 43.0 °F 35.7 °F 35.1 °F 74% 29.78 in 10.0 mi ESE 15.0 mph - 0.01 in Rain Light Rain
11:53 PM 44.1 °F 37.1 °F 34.0 °F 68% 29.75 in 10.0 mi ESE 15.0 mph 24.2 mph 0.00 in Rain Light Rain